Printer-friendly version

IAU Minor Planet Center

Minor Planet Center

MPEC 2006-Q16 : 2004 UX10

The following Minor Planet Electronic Circular may be linked-to from your own Web pages, but must not otherwise be redistributed electronically.


Read MPEC 2006-Q15 Read MPEC 2006-Q17


M.P.E.C. 2006-Q16                                Issued 2006 Aug. 21, 17:22 UT

     The Minor Planet Electronic Circulars contain information on unusual
         minor planets and routine data on comets.  They are published
   on behalf of Commission 20 of the International Astronomical Union by the
          Minor Planet Center, Smithsonian Astrophysical Observatory,
                          Cambridge, MA 02138, U.S.A.

                  Supported in part by the Brinson Foundation
                  Supported in part by the TABASGO Foundation
             Prepared using the Tamkin Foundation Computer Network

                              MPC@CFA.HARVARD.EDU
          URL http://cfa-www.harvard.edu/iau/mpc.html  ISSN 1523-6714

                                   2004 UX10

Observations:
     K04U10X 4C1998 09 25.32375 01 00 30.36 -01 06 19.1          20.5 V EQ016705
     K04U10X 4C1998 09 25.32707 01 00 30.34 -01 06 19.3          21.5   EQ016705
     K04U10X 4C2000 10 02.40279 01 11 54.17 -00 18 27.2          20.5 V EQ016705
     K04U10X 4C2000 10 02.40611 01 11 54.16 -00 18 27.3          21.5   EQ016705
     K04U10X 4C2001 10 25.33679 01 16 02.92 -00 04 05.0          20.6 V EQ016705
     K04U10X 4C2001 10 25.34011 01 16 02.90 -00 04 05.1          21.5   EQ016705
     K04U10X 4C2001 11 12.21373 01 14 43.20 -00 11 09.1          20.6 V EQ016705
     K04U10X 4C2001 11 12.21706 01 14 43.19 -00 11 09.2          21.5   EQ016705
     K04U10X 4C2002 10 04.34339 01 23 42.60 +00 32 27.0          20.4 V EQ016705
     K04U10X 4C2002 10 04.34671 01 23 42.59 +00 32 26.8          21.3   EQ016705
     K04U10X 4C2002 10 05.36777 01 23 37.72 +00 31 53.8          20.5 V EQ016705
     K04U10X 4C2002 10 05.37109 01 23 37.70 +00 31 53.7          21.5   EQ016705
     K04U10X 4C2002 10 31.25833 01 21 33.02 +00 19 10.9          20.6 V EQ016705
     K04U10X 4C2002 10 31.26165 01 21 33.01 +00 19 10.9          21.5   EQ016705
     K04U10X 4C2003 09 28.35217 01 30 07.45 +01 01 28.3          20.7 V EQ016705
     K04U10X 4C2003 09 28.35549 01 30 07.43 +01 01 28.3          21.2   EQ016705
     K04U10X 4C2003 10 22.27333 01 28 12.84 +00 49 01.8          20.5 V EQ016705
     K04U10X 4C2003 10 22.27665 01 28 12.83 +00 49 01.7          21.4   EQ016705
     K04U10X 4C2003 10 24.26915 01 28 03.15 +00 48 04.8          20.5 V EQ016705
     K04U10X 4C2003 10 24.27247 01 28 03.14 +00 48 04.7          21.4   EQ016705
     K04U10X 4C2003 11 20.19960 01 26 03.24 +00 37 50.0          20.6 V EQ016705
     K04U10X 4C2003 11 20.20292 01 26 03.23 +00 37 50.0          21.6   EQ016705
     K04U10X 4C2003 11 28.19018 01 25 34.47 +00 35 56.9          20.6 V EQ016705
     K04U10X 4C2003 11 28.19350 01 25 34.47 +00 35 56.9          21.6   EQ016705
     K04U10X*4C2004 10 20.35908 01 34 13.38 +01 15 07.9          20.6 V EQ016705
     K04U10X 4C2004 10 20.36240 01 34 13.37 +01 15 07.7          21.5   EQ016705
     K04U10X 4C2004 10 24.31007 01 33 54.12 +01 13 14.9          20.4 V EQ016705
     K04U10X 4C2004 10 24.31340 01 33 54.10 +01 13 14.8          21.4   EQ016705
     K04U10X 4C2004 11 03.26504 01 33 06.62 +01 08 52.7          20.5 V EQ016705
     K04U10X 4C2004 11 03.26836 01 33 06.60 +01 08 52.6          21.5   EQ016705
     K04U10X 4C2004 11 05.26615 01 32 57.35 +01 08 04.6          20.4 V EQ016705
     K04U10X 4C2004 11 05.26947 01 32 57.34 +01 08 04.5          21.2   EQ016705
     K04U10X 4C2004 11 10.25369 01 32 34.88 +01 06 12.2          20.6 V EQ016705
     K04U10X 4C2004 11 10.25701 01 32 34.87 +01 06 12.2          21.5   EQ016705
     K04U10X 4C2004 12 12.12514 01 30 44.31 +00 59 24.0          20.7 V EQ016705
     K04U10X 4C2004 12 12.12846 01 30 44.31 +00 59 24.0          21.6   EQ016705

Observer details:
705 Apache Point.  Observer SDSS Collaboration.  Measurers A. C. Becker,
    A. W. Puckett, J. Kubica.  2.5-m f/5 Ritchey-Chretien + CCD.

Orbital elements:
2004 UX10
Epoch 2006 Sept. 22.0 TT = JDT 2454000.5                MPC
M  84.58775              (2000.0)            P               Q
n   0.00406744     Peri.  148.24449     +0.44585324     +0.89078675
a  38.8677028      Node   147.98690     -0.85202248     +0.45242032
e   0.0421325      Incl.    9.53668     -0.27435849     +0.04260076
P 242              H    4.7           G   0.15           U   2
Residuals in seconds of arc
980925 705  0.0   0.0     021031 705  0.0   0.0     041020 705  0.0   0.1-
980925 705  0.0   0.1-    021031 705  0.0   0.1+    041020 705  0.1+  0.2-
001002 705  0.0   0.0     030928 705  0.0   0.0     041024 705  0.0   0.0
001002 705  0.1+  0.0     030928 705  0.1-  0.1+    041024 705  0.0   0.0
011025 705  0.0   0.0     031022 705  0.1-  0.0     041103 705  0.1+  0.1-
011025 705  0.0   0.0     031022 705  0.0   0.0     041103 705  0.1+  0.1-
011112 705  0.0   0.1+    031024 705  0.1-  0.0     041105 705  0.1-  0.1-
011112 705  0.0   0.0     031024 705  0.0   0.0     041105 705  0.0   0.1-
021004 705  0.0   0.1+    031120 705  0.0   0.0     041110 705  0.0   0.1+
021004 705  0.1+  0.0     031120 705  0.0   0.1+    041110 705  0.1+  0.2+
021005 705  0.1+  0.0     031128 705  0.2-  0.0     041212 705  0.1-  0.1+
021005 705  0.0   0.0     031128 705  0.0   0.0     041212 705  0.1+  0.1+

Ephemeris:
2004 UX10                a,e,i = 38.87, 0.04, 10                 q = 37.230
Date    TT    R. A. (2000) Decl.     Delta      r     Elong.  Phase     V
2006 08 13    01 50.06   +02 38.8   38.366   38.777   113.3     1.4    20.8
2006 08 23    01 49.81   +02 35.0   38.220   38.778   122.9     1.3    20.7
2006 09 02    01 49.41   +02 30.7   38.091   38.780   132.5     1.1    20.7
2006 09 12    01 48.88   +02 25.9   37.982   38.781   142.1     0.9    20.7
2006 09 22    01 48.24   +02 20.8   37.895   38.782   151.7     0.7    20.7
2006 10 02    01 47.52   +02 15.5   37.835   38.783   161.0     0.5    20.6
2006 10 12    01 46.74   +02 10.3   37.804   38.784   169.1     0.3    20.6
2006 10 22    01 45.92   +02 05.3   37.802   38.785   171.2     0.2    20.6
2006 11 01    01 45.11   +02 00.7   37.829   38.787   164.4     0.4    20.6
2006 11 11    01 44.33   +01 56.8   37.887   38.788   155.2     0.6    20.6
2006 11 21    01 43.61   +01 53.5   37.972   38.789   145.4     0.8    20.7
2006 12 01    01 42.98   +01 51.2   38.082   38.790   135.4     1.0    20.7
2006 12 11    01 42.46   +01 49.8   38.214   38.791   125.3     1.2    20.7
2006 12 21    01 42.08   +01 49.4   38.364   38.792   115.2     1.3    20.7
2006 12 31    01 41.86   +01 50.0   38.527   38.794   105.1     1.4    20.8
2007 01 10    01 41.79   +01 51.7   38.697   38.795    95.0     1.4    20.8
2007 01 20    01 41.89   +01 54.4   38.871   38.796    84.9     1.4    20.8
2007 01 30    01 42.16   +01 58.0   39.041   38.797    74.9     1.4    20.8
2007 02 09    01 42.59   +02 02.4   39.204   38.798    65.0     1.3    20.8

Gareth V. Williams           (C) Copyright 2006 MPC           M.P.E.C. 2006-Q16

Read MPEC 2006-Q15 Read MPEC 2006-Q17


Our Web policy. Index to the CBAT/MPC/ICQ pages.


Valid HTML 4.01!